Location: ???????
(55.3754°N, 39.3545°E)
Time: 22:48:27
(UTC+00:00)

DNEPR-1 R/B - Pass Details

Date: 14 April 2026
Orbit: 582 x 1331 km, 64.6° (Epoch: 13 May)

Event Time Altitude Azimuth Distance (km) Brightness Sun altitude
Rises 19:08:01 0° 228° (SW) 2,797 6.9 -19.2°
Reaches altitude 10° 19:10:12 10° 229° (SW) 1,902 6.0 -19.4°
Maximum altitude 19:14:24 85° 320° (NW) 614 3.5 -19.7°
Drops below altitude 10° 19:18:59 10° 48° (NE) 2,074 6.3 -20.0°
Sets 19:21:26 0° 49° (NE) 3,077 7.2 -20.2°
